Hourly Data Report for January 17, 2013

NORTH BAY A
ONTARIO

46°21'50.000" N
79°25'27.000" W
370.30 m
6085701
YYB

Download Data

Hourly Data (January 2013)
Hourly Data Report for January 17, 2013
TIME
LST
Temp Definition
°C
Dew Point Definition
°C
Rel Hum Definition
%
Precip. Amount Definition
mm

Wind Dir Definition
10's deg

Wind Spd Definition
km/h
Visibility Definition
km
Stn Press Definition
kPa
Hmdx Definition


Wind Chill Definition


Weather Definition


00:00 -13.7 -16.9 77   35 33 6.4 96.29   -25 Snow,Blowing Snow
01:00 -15.9 -20.4 69   33 22 19.3 96.63   -26 Snow,Blowing Snow
02:00 -19.1 LegendMM LegendMM   34 24 24.1 96.87   -30 Blowing Snow
03:00 LegendMM LegendMM LegendMM   35 21 24.1 97.06     LegendNANA
04:00 LegendMM LegendMM LegendMM   36 15 24.1 97.16     Clear
05:00 -24.5 -28.8 68   35 15 24.1 97.25   -35 LegendNANA
06:00 -25.5 -29.6 69   35 12 24.1 97.41   -35 LegendNANA
07:00 -26.5 -30.3 71   36 8 24.1 97.48   -34 Clear
08:00 -27.1 -30.7 72   36 7 24.1 97.55   -34 LegendNANA
09:00 -27.0 -31.1 69   35 15 24.1 97.68   -38 LegendNANA
10:00 -25.9 -31.5 60   36 9 24.1 97.74   -34 Clear
11:00 -25.0 -31.1 58   15 5 24.1 97.77   -30 LegendNANA
12:00 -23.6 -30.3 55   16 7 24.1 97.71   -30 LegendNANA
13:00 -22.9 -29.1 58   19 7 24.1 97.60   -29 Clear
14:00 -22.2 -28.8 56   20 8 24.1 97.52   -29 LegendNANA
15:00 -22.2 -29.0 55   23 5 24.1 97.48   -27 LegendNANA
16:00 -21.8 -29.0 53   20 11 24.1 97.51   -30 Mainly Clear
17:00 -22.3 -29.3 54   30 4 24.1 97.49   -26 LegendNANA
18:00 -24.5 -28.0 73     0 24.1 97.50     LegendNANA
19:00 -24.8 -29.1 68     0 24.1 97.52     Clear
20:00 -23.4 -29.7 57   18 9 24.1 97.55   -31 LegendNANA
21:00 -23.8 -29.7 59   12 6 24.1 97.57   -29 LegendNANA
22:00 -23.1 -31.3 48   14 10 24.1 97.52   -31 Mainly Clear
23:00 -21.5 -28.1 56   13 4 24.1 97.45   -25 LegendNANA

Notes on Data Quality.

Legend

  • E = Estimated
  • M = Missing
  • NA = Not Available*
  • [empty] = Indicates an unobserved value
Date modified: